CW7779 Weather Reports


Display with metric or nautical units.
time (UTC)temp
F
wind
direction
speed
MPH
gust
MPH
rain 1hr
in
rain 24hr
in
rain mn
in
humidity
%
barometer
mb
20200329161553 71 230 8.0 18.0 0.00 0.00 0.00 77 1015.8
20200329160027 73 173 6.0 15.0 0.00 0.00 0.00 76 1016.0
20200329154549 72 217 5.0 14.0 0.00 0.00 0.00 77 1016.1
20200329153026 72 197 6.0 13.0 0.00 0.00 0.00 78 1016.2
20200329151523 71 159 6.0 14.0 0.00 0.00 0.00 79 1016.5
20200329150016 70 202 4.0 13.0 0.00 0.00 0.00 81 1016.5
20200329144539 70 213 6.0 13.0 0.00 0.00 0.00 81 1016.6
20200329143031 71 198 4.0 9.0 0.00 0.00 0.00 80 1016.7
20200329141528 71 244 6.0 13.0 0.00 0.00 0.00 81 1016.6
20200329140007 70 200 4.0 13.0 0.00 0.00 0.00 84 1016.7
20200329134538 69 190 6.0 13.0 0.00 0.00 0.00 84 1016.6
20200329133141 69 210 6.0 13.0 0.00 0.00 0.00 85 1016.5
20200329131618 68 280 6.0 14.0 0.00 0.00 0.00 87 1016.4
20200329130131 67 242 6.0 12.0 0.00 0.00 0.00 88 1016.2
20200329124729 67 203 3.0 12.0 0.00 0.00 0.00 90 1016.2
20200329123154 66 216 4.0 11.0 0.00 0.00 0.00 92 1016.1
20200329121633 65 213 4.0 10.0 0.00 0.00 0.00 92 1016.0
20200329120107 65 283 3.0 12.0 0.00 0.00 0.00 92 1015.9
20200329114559 65 217 4.0 11.0 0.00 0.00 0.00 93 1015.7
20200329113140 64 196 4.0 14.0 0.00 0.00 0.00 92 1015.4
20200329111628 64 217 5.0 12.0 0.00 0.00 0.00 92 1015.1
20200329110100 64 203 6.0 13.0 0.00 0.00 0.00 92 1015.0
20200329104629 65 206 4.0 10.0 0.00 0.00 0.00 92 1014.8
20200329103204 65 225 5.0 11.0 0.00 0.00 0.00 92 1014.6
20200329101622 65 186 4.0 11.0 0.00 0.00 0.00 92 1014.4
20200329100058 65 190 3.0 8.0 0.00 0.00 0.00 92 1014.3
20200329094538 65 215 4.0 11.0 0.00 0.00 0.00 92 1014.3
20200329093104 65 203 2.0 10.0 0.00 0.00 0.00 91 1014.3
20200329091627 65 195 3.0 10.0 0.00 0.00 0.00 91 1014.4
20200329090129 65 227 3.0 7.0 0.00 0.00 0.00 92 1014.5
20200329084543 65 207 4.0 7.0 0.00 0.00 0.00 92 1014.6
20200329083051 65 163 4.0 7.0 0.00 0.00 0.00 92 1014.6
20200329081617 65 233 4.0 7.0 0.00 0.00 0.00 92 1014.6
20200329080056 65 219 1.0 6.0 0.00 0.00 0.00 91 1014.7
20200329074548 65 200 2.0 8.0 0.00 0.00 0.00 91 1014.9
20200329073036 65 240 1.0 6.0 0.00 0.00 0.00 91 1014.8
20200329071541 65 206 4.0 9.0 0.00 0.00 0.00 91 1014.7
20200329070118 65 203 4.0 10.0 0.00 0.00 0.00 91 1014.6
20200329064525 65 198 2.0 7.0 0.00 0.00 0.00 90 1014.7
20200329063052 66 213 3.0 7.0 0.00 0.00 0.00 90 1014.7
20200329061526 66 239 3.0 10.0 0.00 0.00 0.00 90 1014.8
20200329060028 66 223 4.0 7.0 0.00 0.00 0.00 90 1015.1
20200329054538 66 211 3.0 11.0 0.00 0.00 0.00 90 1015.1
20200329053025 66 190 2.0 10.0 0.00 0.00 0.00 90 1014.9
20200329051518 66 231 3.0 12.0 0.00 0.00 0.00 90 1014.9
20200329050027 66 239 3.0 11.0 0.00 0.00 0.00 90 1014.7
20200329044525 66 203 6.0 13.0 0.00 0.00 0.00 90 1014.7
20200329043050 66 215 5.0 11.0 0.00 0.00 0.00 91 1014.6
20200329041513 66 214 4.0 13.0 0.00 0.00 0.00 91 1014.7
20200329040011 66 198 4.0 15.0 0.00 0.00 0.00 90 1014.7
20200329034539 66 189 4.0 13.0 0.00 0.00 0.00 91 1014.6
20200329033026 66 193 5.0 14.0 0.00 0.00 0.00 90 1014.6
20200329031543 66 234 4.0 14.0 0.00 0.00 0.00 90 1014.6
20200329030014 66 173 5.0 13.0 0.00 0.00 0.00 90 1014.6
20200329024511 66 275 4.0 12.0 0.00 0.00 0.00 90 1014.6
20200329023013 66 261 7.0 13.0 0.00 0.00 0.00 89 1014.5
20200329021526 66 214 4.0 12.0 0.00 0.00 0.00 89 1014.4
20200329014507 66 219 5.0 13.0 0.00 0.00 0.00 88 1014.1
20200329013024 66 182 5.0 13.0 0.00 0.00 0.00 88 1014.1
20200329011502 66 175 6.0 17.0 0.00 0.00 0.00 88 1013.9
20200329010006 66 253 7.0 16.0 0.00 0.00 0.00 87 1013.7
20200329004511 66 244 5.0 16.0 0.00 0.00 0.00 86 1013.6
20200329003142 66 211 4.0 14.0 0.00 0.00 0.00 86 1013.6
20200329001646 67 220 8.0 17.0 0.00 0.00 0.00 84 1013.5
20200329000113 67 248 9.0 22.0 0.00 0.00 0.00 84 1013.4
20200328234654 67 327 8.0 21.0 0.00 0.00 0.00 84 1013.4
20200328233120 67 250 9.0 18.0 0.00 0.00 0.00 83 1013.3
20200328231627 68 247 7.0 22.0 0.00 0.00 0.00 83 1013.2
20200328230216 68 235 8.0 20.0 0.00 0.00 0.00 82 1013.0
20200328224647 69 203 7.0 19.0 0.00 0.00 0.00 81 1013.0
20200328223133 68 209 9.0 19.0 0.00 0.00 0.00 81 1012.5
20200328221641 69 259 8.0 21.0 0.00 0.00 0.00 81 1012.5
20200328220118 69 207 7.0 15.0 0.00 0.00 0.00 81 1012.5
20200328214556 68 218 5.0 19.0 0.00 0.00 0.00 82 1012.4
20200328213041 69 198 11.0 23.0 0.00 0.00 0.00 82 1012.1
20200328211530 69 296 9.0 18.0 0.00 0.00 0.00 81 1012.4
20200328210032 70 196 7.0 19.0 0.00 0.00 0.00 80 1012.4
20200328204559 69 182 11.0 21.0 0.00 0.00 0.00 81 1012.4
20200328203048 70 171 9.0 23.0 0.00 0.00 0.00 80 1012.2
20200328201533 71 245 6.0 21.0 0.00 0.00 0.00 78 1012.5
20200328200023 71 207 7.0 19.0 0.00 0.00 0.00 78 1012.7
20200328194526 71 238 9.0 19.0 0.00 0.00 0.00 77 1012.9
20200328193025 72 215 8.0 19.0 0.00 0.00 0.00 76 1012.9
20200328191544 74 186 4.0 16.0 0.00 0.00 0.00 75 1013.0
20200328190035 74 229 6.0 14.0 0.00 0.00 0.00 74 1013.0
20200328184548 73 222 5.0 16.0 0.00 0.00 0.00 75 1013.1
20200328183106 73 215 8.0 18.0 0.00 0.00 0.00 75 1013.5
20200328181519 74 179 6.0 16.0 0.00 0.00 0.00 73 1013.5
20200328180015 74 238 4.0 14.0 0.00 0.00 0.00 76 1013.6
20200328174525 73 230 4.0 15.0 0.00 0.00 0.00 76 1013.7
20200328173025 74 184 7.0 14.0 0.00 0.00 0.00 74 1014.0
20200328171513 75 198 8.0 14.0 0.00 0.00 0.00 73 1014.1
20200328170015 75 200 5.0 18.0 0.00 0.00 0.00 73 1014.1
20200328164517 74 205 4.0 14.0 0.00 0.00 0.00 77 1014.2
20200328163010 75 221 3.0 11.0 0.00 0.00 0.00 75 1014.5